EW4927 Weather Reports


time (UTC)temp
F
wind
direction
speed
knots
gust
knots
rain 1hr
in
rain 24hr
in
rain mn
in
humidity
%
barometer
mb
20260510213632 43 0 0.0 0.0 0.00 0.00 0.00 82 1016.1
20260510212632 44 0 0.0 0.0 0.00 0.00 0.00 79 1016.0
20260510211631 44 0 0.0 0.0 0.00 0.00 0.00 79 1016.0
20260510205631 45 0 0.0 0.0 0.00 0.00 0.00 78 1015.9
20260510203630 47 0 0.0 0.0 0.00 0.00 0.00 75 1015.8
20260510200629 48 0 0.0 0.0 0.00 0.00 0.00 73 1015.7
20260510194629 49 0 0.0 0.0 0.00 0.00 0.00 72 1015.7
20260510193628 50 0 0.0 0.0 0.00 0.00 0.00 71 1015.7
20260510192629 50 0 0.0 0.0 0.00 0.00 0.00 71 1015.6
20260510191629 51 0 0.0 0.0 0.00 0.00 0.00 70 1015.6
20260510190627 52 0 0.0 0.0 0.00 0.00 0.00 70 1015.7
20260510184626 52 0 0.0 0.0 0.00 0.00 0.00 70 1015.7
20260510183625 52 0 0.0 0.0 0.00 0.00 0.00 69 1015.7
20260510181646 53 0 0.0 0.0 0.00 0.00 0.00 69 1015.7
20260510180624 53 0 0.0 0.0 0.00 0.00 0.00 68 1015.6
20260510174624 55 0 0.0 0.0 0.00 0.00 0.00 66 1015.6
20260510173623 57 0 0.0 0.0 0.00 0.00 0.00 60 1015.7
20260510171620 57 0 0.0 0.0 0.00 0.00 0.00 54 1015.8
20260510170622 59 0 0.0 0.0 0.00 0.00 0.00 56 1015.8
20260510163621 59 0 0.0 0.0 0.00 0.00 0.00 61 1016.2
20260510162620 59 0 0.0 0.0 0.00 0.00 0.00 58 1016.2
20260510161619 59 0 0.0 0.0 0.00 0.00 0.00 60 1016.4
20260510160618 59 0 0.0 0.0 0.00 0.00 0.00 58 1016.4
20260510155616 58 0 0.0 0.0 0.00 0.00 0.00 59 1016.5
20260510154616 60 0 0.0 0.0 0.00 0.00 0.00 60 1016.6
20260510153614 59 0 0.0 0.0 0.00 0.00 0.00 60 1016.7
20260510152616 59 0 0.0 0.0 0.00 0.00 0.00 62 1016.7
20260510151614 58 0 0.0 0.0 0.00 0.00 0.00 63 1016.9
20260510145612 56 0 0.0 0.0 0.00 0.00 0.00 69 1017.1
20260510144614 56 0 0.0 0.0 0.00 0.00 0.00 66 1017.3
20260510143611 57 0 0.0 0.0 0.00 0.00 0.00 66 1017.3
20260510142613 59 0 0.0 0.0 0.00 0.00 0.00 64 1017.4
20260510141610 58 0 0.0 0.0 0.00 0.00 0.00 63 1017.5
20260510140610 59 0 0.0 0.0 0.00 0.00 0.00 65 1017.6
20260510135610 60 0 0.0 0.0 0.00 0.00 0.00 60 1017.7
20260510134608 60 0 0.0 0.0 0.00 0.00 0.00 61 1017.6
20260510133608 60 0 0.0 0.0 0.00 0.00 0.00 64 1017.7
20260510132606 60 0 0.0 0.0 0.00 0.00 0.00 63 1017.8
20260510131607 60 0 0.0 0.0 0.00 0.00 0.00 62 1018.0
20260510130606 60 0 0.0 0.0 0.00 0.00 0.00 62 1018.1
20260510125607 60 0 0.0 0.0 0.00 0.00 0.00 63 1018.2
20260510124605 60 0 0.0 0.0 0.00 0.00 0.00 66 1018.2
20260510123606 59 0 0.0 0.0 0.00 0.00 0.00 66 1018.3
20260510122604 59 0 0.0 0.0 0.00 0.00 0.00 64 1018.4
20260510120602 60 0 0.0 0.0 0.00 0.00 0.00 66 1018.6
20260510113601 58 0 0.0 0.0 0.00 0.00 0.00 70 1018.7
20260510111600 56 0 0.0 0.0 0.00 0.00 0.00 70 1019.0
20260510110600 56 0 0.0 0.0 0.00 0.00 0.00 73 1019.1
20260510105600 56 0 0.0 0.0 0.00 0.00 0.00 70 1019.2
20260510104558 57 0 0.0 0.0 0.00 0.00 0.00 72 1019.3
20260510103557 55 0 0.0 0.0 0.00 0.00 0.00 74 1019.4
20260510102559 55 0 0.0 0.0 0.00 0.00 0.00 74 1019.6
20260510100556 55 0 0.0 0.0 0.00 0.00 0.00 76 1019.6
20260510095555 54 0 0.0 0.0 0.00 0.00 0.00 77 1019.6
20260510094555 54 0 0.0 0.0 0.00 0.00 0.00 79 1019.6
20260510093555 53 0 0.0 0.0 0.00 0.00 0.00 78 1019.6
20260510092555 53 0 0.0 0.0 0.00 0.00 0.00 79 1019.7
20260510090554 52 0 0.0 0.0 0.00 0.00 0.00 81 1019.7
20260510085553 51 0 0.0 0.0 0.00 0.00 0.00 82 1019.8
20260510084551 51 0 0.0 0.0 0.00 0.00 0.00 83 1019.8
20260510082552 50 0 0.0 0.0 0.00 0.00 0.00 84 1019.8
20260510081549 49 0 0.0 0.0 0.00 0.00 0.00 84 1019.8
20260510080549 49 0 0.0 0.0 0.00 0.00 0.00 86 1019.9
20260510075549 49 0 0.0 0.0 0.00 0.00 0.00 86 1019.8
20260510074547 49 0 0.0 0.0 0.00 0.00 0.00 87 1019.8
20260510073547 48 0 0.0 0.0 0.00 0.00 0.00 87 1019.8
20260510072548 48 0 0.0 0.0 0.00 0.00 0.00 88 1019.7
20260510071546 48 0 0.0 0.0 0.00 0.00 0.00 88 1019.6
20260510070547 48 0 0.0 0.0 0.00 0.00 0.00 89 1019.5
20260510064546 47 0 0.0 0.0 0.00 0.00 0.00 91 1019.4
20260510062544 46 0 0.0 0.0 0.00 0.00 0.00 93 1019.3
20260510061542 46 0 0.0 0.0 0.00 0.00 0.00 94 1019.1
20260510060541 45 0 0.0 0.0 0.00 0.00 0.00 93 1019.0
20260510055542 45 0 0.0 0.0 0.00 0.00 0.00 93 1018.8
20260510054542 45 0 0.0 0.0 0.00 0.00 0.00 93 1018.9
20260510053542 45 0 0.0 0.0 0.00 0.00 0.00 93 1018.9
20260510051539 45 0 0.0 0.0 0.00 0.00 0.00 93 1019.0
20260510050539 45 0 0.0 0.0 0.00 0.00 0.00 92 1019.1
20260510045538 46 0 0.0 0.0 0.00 0.00 0.00 92 1019.0
20260510044538 46 0 0.0 0.0 0.00 0.00 0.00 92 1019.1
20260510043539 46 0 0.0 0.0 0.00 0.00 0.00 92 1019.2
20260510041535 46 0 0.0 0.0 0.00 0.00 0.00 92 1019.1
20260509225640 51 0 0.0 0.0 0.00 0.00 0.00 93 1019.3
20260509224637 51 0 0.0 0.0 0.00 0.00 0.00 93 1019.1
20260509222636 50 0 0.0 0.0 0.00 0.00 0.00 93 1019.3
20260509221636 50 0 0.0 0.0 0.00 0.00 0.00 93 1019.2
20260509220635 49 0 0.0 0.0 0.00 0.00 0.00 93 1019.2
20260509215633 49 0 0.0 0.0 0.00 0.00 0.00 92 1019.2
20260509214633 49 0 0.0 0.0 0.00 0.00 0.00 92 1019.3